Location: Unspecified
(0.0000°N, 0.0000°E)
Time: 21:55:55
(UTC+02:00)

Sapphire - Visible Passes

Search period start: 19 October 2017 00:00
Search period end: 29 October 2017 00:00
Orbit: 786 x 796 km, 67.1° (Epoch: 18 October)

Date Brightness Start Highest point End Pass type
(mag) Time Alt. Az. Time Alt. Az. Time Alt. Az.
19 Oct ? 20:58:31 10° NNW 21:03:53 72° WSW 21:09:15 10° SSE visible
20 Oct ? 20:27:53 10° NNW 20:33:15 74° ENE 20:38:38 10° SSE visible
21 Oct ? 07:23:19 10° SE 07:26:22 15° ESE 07:29:25 10° ENE visible
21 Oct ? 19:57:27 10° N 20:02:37 47° ENE 20:07:47 10° SE visible
21 Oct ? 21:44:31 10° W 21:45:47 11° WSW 21:47:02 10° SW visible
22 Oct ? 21:11:38 10° WNW 21:15:07 17° WSW 21:18:36 10° SSW visible
23 Oct ? 20:40:00 10° NW 20:44:27 27° WSW 20:48:56 10° SSW visible
24 Oct ? 20:08:47 10° NW 20:13:49 41° WSW 20:18:52 10° S visible
25 Oct ? 07:01:55 10° S 07:06:58 40° ESE 07:12:00 10° NE visible
26 Oct ? 06:31:52 10° SSE 06:36:19 26° ESE 06:40:46 10° NE visible
27 Oct ? 06:02:15 10° SSE 06:05:40 17° ESE 06:09:04 10° ENE visible
28 Oct ? 05:34:03 10° ESE 05:35:00 10° ESE 05:35:57 10° E visible
28 Oct ? 07:12:57 10° SW 07:18:09 49° WNW 07:23:22 10° N visible
